Search for airport 
image banner adimage banner ad
image banner ad

VIAR - Amritsar

Located in Amritsar, India

ICAO - VIAR, IATA - ATQ

Data provided by Airmate  

General information

Coordinates: N31°42'38" E74°48'1"
Elevation is 758 feet MSL.
 
Rated:
View ratings: [VIEW]


View others Airports in Punjab

Operational data

Open for public use
Current time UTC:
Current local time:
Weather
METAR: VIAR 281500Z 02007KT 1300 R34/2000 BR FEW040 20/16 Q1013 NOSIG
TAF: TAF VIAR 281400Z 2815/2824 VRB02KT 1800 BR FEW030 SCT100 BECMG 2822/2824 09010G20KT 1000 TSRA SCT030 FEW035CB OVC080
View NOTAMs / SUP AIP / TFR affecting this airport [VIEW]
Communications frequencies: [VIEW]

Runways:

RWY identifierQFULength (ft)Width (ft)SurfaceLDA (ft)
16158°11998148ASP
34338°11998148

Airport contact information

Address: Amritsar India

Satellite view of VIAR